Year,Month,Day,Hour,Minute,Value (Times are PST for barometer in hPa)
2008,02,12,01,09,1041.89
2008,02,12,01,10,1041.89
2008,02,12,01,11,1041.89
2008,02,12,01,12,1041.89
2008,02,12,01,13,1041.89
2008,02,12,01,14,1041.89
2008,02,12,01,15,1041.89
2008,02,12,01,16,1041.89
2008,02,12,01,17,1041.89
2008,02,12,01,18,1041.89
2008,02,12,01,19,1041.89
2008,02,12,01,20,1041.89
2008,02,12,01,21,1041.89
2008,02,12,01,22,1041.89
2008,02,12,01,23,1041.89
2008,02,12,01,24,1041.89
2008,02,12,01,25,1041.89
2008,02,12,01,26,1041.89
2008,02,12,03,14,1053.13
2008,02,12,03,15,1053.13
2008,02,12,03,16,1053.13
2008,02,12,03,17,1053.13
2008,02,12,03,18,1053.13
2008,02,12,03,19,1053.13
2008,02,12,03,20,1053.13
2008,02,12,03,21,1053.13
2008,02,12,03,22,1053.13
2008,02,12,03,23,1053.13
2008,02,12,03,24,1053.13
2008,02,12,03,25,1053.24
2008,02,12,03,26,1053.24
2008,02,12,03,27,1053.24
2008,02,12,03,28,1053.24
2008,02,12,03,29,1053.24
2008,02,12,03,30,1053.24
2008,02,12,03,31,1053.24
2008,02,12,03,32,1053.24
2008,02,12,03,33,1053.24
2008,02,12,03,34,1053.24
2008,02,12,03,35,1053.24
2008,02,12,03,36,1053.24
2008,02,12,03,37,1053.24
2008,02,12,03,38,1053.24
2008,02,12,03,39,1053.24
2008,02,12,03,40,1053.24
2008,02,12,03,41,1053.24
2008,02,12,03,42,1053.24
2008,02,12,03,43,1053.24
2008,02,12,03,44,1053.24
2008,02,12,03,45,1053.24
2008,02,12,03,46,1053.24
2008,02,12,20,32,988.89
2008,02,12,20,33,991.74
2008,02,12,20,41,1020.39
2008,02,12,20,42,1020.39
2008,02,12,20,43,1020.39
2008,02,12,20,44,1020.39
2008,02,12,20,45,1020.39
2008,02,12,20,46,1020.39
2008,02,12,20,47,1020.39
2008,02,12,20,48,1020.58
2008,02,12,20,49,1020.59
2008,02,12,21,04,1049.31
2008,02,12,21,05,1049.41
2008,02,12,21,06,1049.41
2008,02,12,21,07,1049.41
2008,02,12,21,08,1049.41
2008,02,12,21,09,1049.41
2008,02,12,21,10,1049.41
2008,02,12,21,11,1049.41
2008,02,12,21,12,1049.41
2008,02,12,21,13,1049.41
2008,02,12,22,40,1021.40
2008,02,12,22,41,1021.40
2008,02,12,22,42,993.26
2008,02,12,22,43,993.26
2008,02,12,22,44,993.26
2008,02,12,22,45,993.26
2008,02,12,22,46,993.26
2008,02,12,22,47,993.26
2008,02,12,22,48,993.26
2008,02,12,22,49,993.26
2008,02,12,22,50,993.26
2008,02,12,22,51,993.26
2008,02,12,22,52,993.26
2008,02,12,22,53,993.26
2008,02,12,22,54,993.26
2008,02,12,22,55,993.26
2008,02,12,22,56,993.26
2008,02,12,22,57,993.26
2008,02,12,23,34,989.09
2008,02,12,23,35,993.23
2008,02,12,23,36,993.23
2008,02,12,23,37,993.23
2008,02,12,23,38,993.23
2008,02,12,23,39,993.23
2008,02,12,23,40,993.23
2008,02,12,23,41,993.23
2008,02,12,23,42,993.23
2008,02,12,23,43,993.23
2008,02,12,23,44,993.23
2008,02,12,23,45,993.23
2008,02,12,23,46,993.23
2008,02,12,23,47,993.23
2008,02,12,23,48,993.23
2008,02,12,23,49,993.23
2008,02,12,23,50,993.23
2008,02,12,23,51,993.23
2008,02,12,23,52,993.23
2008,02,12,23,53,993.23
2008,02,12,23,54,993.23
